Watsonville, CA

6:49 AM PDT on August 27, 2016 (GMT -0700)
Watsonville Municipal

Weather History for KWVI - February, 2014

Change the Weather History Date:

Saturday, February 8, 2014

  Actual Average Record
Temperature  
Mean Temperature 55 °F 52 °F  
Max Temperature 58 °F 61 °F 80 °F (2006)
Min Temperature 52 °F 42 °F 31 °F (1990)
Degree Days  
Heating Degree Days 10    
Month to date heating degree days 128  
Since 1 July heating degree days 1550  
Cooling Degree Days 0    
Month to date cooling degree days 0  
Year to date cooling degree days 0  
Growing Degree Days 4 (Base 50)    
Moisture  
Dew Point 55 °F    
Average Humidity 93    
Maximum Humidity 100    
Minimum Humidity 86    
Precipitation  
Precipitation 0.42 in - 0.94 in (1983)
Month to date precipitation 1.65  
Year to date precipitation 1.70  
Since 1 July precipitation 2.77  
Sea Level Pressure  
Sea Level Pressure 30.18 in    
Wind  
Wind Speed 7 mph (SSW)    
Max Wind Speed 20 mph    
Max Gust Speed 28 mph    
Visibility 7 miles    
Events Rain    
T = Trace of Precipitation, MM = Missing Value Source: NWS Daily Summary

Daily Weather History Graph

Daily Weather History Graph

Search for Another Location

Airport or City:

Trip Planner

Search our weather history database for the weather conditions in past years. The results will help you decide how hot, cold, wet, or windy it might be!

Date:

Astronomy

Feb. 08, 2014 Rise Set
Actual Time 7:03 AM PST 5:40 PM PST
Civil Twilight 6:36 AM PST 6:07 PM PST
Nautical Twilight 6:05 AM PST 6:37 PM PST
Astronomical Twilight 5:35 AM PST 7:08 PM PST
Moon 12:40 PM PST (2/8) 2:18 AM PST (2/8)
Length of Visible Light 11h 30m
Length of Day
10h 37m
Waxing Gibbous, 69% of the Moon is Illuminated
Feb 8
Waxing Gibbous
Feb 14
Full
Feb 22
Last Quarter
Mar 1
New
Mar 8
First Quarter

Hourly Weather History & Observations

Time (PST) Temp. Dew Point Humidity Pressure Visibility Wind Dir Wind Speed Gust Speed Precip Events Conditions
12:05 AM 51.8 °F 51.8 °F 100% 30.14 in 10.0 mi Calm Calm - 0.00 in Rain Light Rain
12:53 AM 52.0 °F 52.0 °F 100% 30.15 in 10.0 mi NW 4.6 mph - 0.01 in   Overcast
1:53 AM 52.0 °F 52.0 °F 100% 30.14 in 10.0 mi Calm Calm - 0.00 in Rain Light Rain
2:53 AM 52.0 °F 52.0 °F 100% 30.14 in 7.0 mi Calm Calm - 0.00 in Rain Light Rain
3:53 AM 52.0 °F 52.0 °F 100% 30.15 in 7.0 mi WNW 3.5 mph - 0.02 in Rain Light Rain
4:28 AM 51.8 °F 51.8 °F 100% 30.16 in 4.0 mi Calm Calm - 0.01 in Rain Rain
4:53 AM 52.0 °F 52.0 °F 100% 30.15 in 4.0 mi Calm Calm - 0.07 in Rain Rain
5:53 AM 52.0 °F 52.0 °F 100% 30.15 in 10.0 mi Calm Calm - 0.02 in Rain Light Rain
6:53 AM 52.0 °F 52.0 °F 100% 30.16 in 10.0 mi Calm Calm - 0.01 in Rain Light Rain
7:53 AM 52.0 °F 52.0 °F 100% 30.17 in 2.0 mi NNW 3.5 mph - 0.05 in Rain Rain
8:09 AM 51.8 °F 51.8 °F 100% 30.17 in 2.0 mi NW 3.5 mph - 0.03 in Rain Rain
8:18 AM 53.6 °F - N/A% 30.17 in 1.8 mi Calm Calm - 0.05 in Rain Rain
8:27 AM 53.6 °F 53.6 °F 100% 30.17 in 2.5 mi NNW 4.6 mph - 0.07 in Rain Rain
8:41 AM 53.6 °F 53.6 °F 100% 30.15 in 5.0 mi NE 5.8 mph - 0.09 in Rain Light Rain
8:53 AM 53.1 °F 53.1 °F 100% 30.16 in 10.0 mi Calm Calm - 0.09 in Rain Light Rain
9:53 AM 54.0 °F 54.0 °F 100% 30.17 in 10.0 mi Calm Calm - 0.00 in   Overcast
10:53 AM 57.0 °F 57.0 °F 100% 30.17 in 10.0 mi Calm Calm - 0.00 in   Overcast
11:28 AM 57.2 °F 57.2 °F 100% 30.16 in 2.5 mi SSW 9.2 mph 27.6 mph 0.00 in Rain Light Rain
11:35 AM 57.2 °F 55.4 °F 94% 30.17 in 2.5 mi SSW 6.9 mph - 0.01 in Rain Light Rain
11:53 AM 57.0 °F 57.0 °F 100% 30.19 in 2.0 mi SSW 9.2 mph - 0.01 in Rain Light Rain
12:00 PM 57.2 °F 57.2 °F 100% 30.19 in 1.5 mi SSW 10.4 mph - 0.03 in Rain Heavy Rain
12:05 PM 57.2 °F 57.2 °F 100% 30.19 in 1.2 mi South 16.1 mph 21.9 mph 0.05 in Rain Heavy Rain
12:12 PM 57.2 °F 57.2 °F 100% 30.19 in 2.0 mi SSW 12.7 mph 23.0 mph 0.07 in Rain Rain
12:17 PM 57.2 °F 57.2 °F 100% 30.19 in 1.8 mi SSW 18.4 mph 27.6 mph 0.07 in Rain Rain
12:25 PM 57.2 °F 57.2 °F 100% 30.19 in 1.8 mi SSW 19.6 mph 27.6 mph 0.08 in Rain Light Rain
12:30 PM 57.2 °F 57.2 °F 100% 30.19 in 2.0 mi SSW 15.0 mph 26.5 mph 0.08 in Rain Light Rain
12:53 PM 57.0 °F 57.0 °F 100% 30.19 in 1.8 mi SSW 18.4 mph 24.2 mph 0.09 in Rain Light Rain
1:04 PM 57.2 °F 57.2 °F 100% 30.19 in 3.0 mi SSW 16.1 mph 25.3 mph 0.01 in Rain Light Rain
1:43 PM 57.2 °F 57.2 °F 100% 30.19 in 4.0 mi SSW 15.0 mph 23.0 mph 0.03 in Rain Light Rain
1:53 PM 57.0 °F 57.0 °F 100% 30.18 in 9.0 mi SSW 13.8 mph 21.9 mph 0.03 in Rain Light Rain
2:53 PM 57.0 °F 57.0 °F 100% 30.18 in 10.0 mi South 12.7 mph - 0.00 in   Overcast
3:10 PM 57.2 °F 57.2 °F 100% 30.18 in 10.0 mi South 12.7 mph - N/A   Overcast
3:43 PM 57.2 °F 57.2 °F 100% 30.18 in 7.0 mi SSW 13.8 mph 20.7 mph 0.00 in Rain Light Rain
3:53 PM 57.0 °F 55.9 °F 96% 30.19 in 10.0 mi SSW 13.8 mph - 0.00 in   Overcast
4:53 PM 57.0 °F 55.0 °F 93% 30.18 in 10.0 mi South 10.4 mph - 0.00 in   Overcast
5:53 PM 55.9 °F 55.0 °F 97% 30.18 in 10.0 mi South 9.2 mph - 0.00 in   Overcast
6:13 PM 57.2 °F 55.4 °F 94% 30.18 in 10.0 mi South 10.4 mph - N/A   Overcast
6:53 PM 57.0 °F 55.0 °F 93% 30.19 in 10.0 mi SSW 6.9 mph - N/A   Overcast
7:07 PM 57.2 °F 55.4 °F 94% 30.19 in 10.0 mi South 8.1 mph - N/A   Overcast
7:37 PM 57.2 °F 55.4 °F 94% 30.19 in 10.0 mi South 5.8 mph - N/A   Overcast
7:53 PM 57.0 °F 54.0 °F 89% 30.19 in 10.0 mi South 9.2 mph - N/A   Overcast
8:53 PM 57.0 °F 54.0 °F 89% 30.20 in 10.0 mi South 10.4 mph - N/A   Overcast
9:21 PM 57.2 °F 53.6 °F 88% 30.20 in 10.0 mi SSW 15.0 mph - N/A   Overcast
9:48 PM 57.2 °F 53.6 °F 88% 30.22 in 7.0 mi SSW 16.1 mph 25.3 mph 0.00 in Rain Light Rain
9:53 PM 57.0 °F 55.0 °F 93% 30.22 in 8.0 mi SSW 17.3 mph 25.3 mph 0.00 in Rain Light Rain
10:53 PM 57.0 °F 55.9 °F 96% 30.22 in 10.0 mi SSW 18.4 mph 25.3 mph 0.01 in   Overcast
11:03 PM 55.4 °F 55.4 °F 100% 30.22 in 10.0 mi South 15.0 mph 23.0 mph N/A   Overcast
11:53 PM 55.9 °F 54.0 °F 93% 30.22 in 9.0 mi South 9.2 mph 17.3 mph 0.00 in Rain Light Rain